User: anonymous   Login
Location: Cimarron National Grasslands
(37.1250°N, 101.7500°W)
Time: 14:12:54
(UTC-05:00)
Language:

Ariane Rocket - Orbit

View from above orbital plane
View from above orbital plane
View from above satellite
View from above satellite

Ground track
Ground track

The orbit data is extracted from the following two-line orbital elements,

1 23561U 95021B   15181.56355863  .00000083  00000-0  42982-4 0  9991
2 23561 098.7304 157.4418 0006131 215.9224 281.1210 14.37607854 58133
Epoch (UTC): 30 June 2015 13:31:31
Eccentricity: 0.0006131
inclination: 98.7304°
perigee height: 762 km
apogee height: 771 km
right ascension of ascending node: 157.4418°
argument of perigee: 215.9224°
revolutions per day: 14.37607854
mean anomaly at epoch: 281.1210°
orbit number at epoch: 5813

The dashed part of the orbit path shows where the satellite is in the earth's shadow,  

DLR